[[{"header":{"parameterUnit":"m.s-1","parameterCategory":1,"la1":30.2991,"la2":30.254,"lo1":-89.0895,"lo2":-89.0444,"dy":0.0017,"dx":0.0017,"nx":28,"ny":28,"refTime":"2026-02-27T03:00:00:Z","depth":0,"parameterNumber":2,"parameterNumberName":"U-component_of_WINDS"},"data":[0,0,0,0,0,0,0,0,0,0,0,0,0,0,0,0,0,0,0,0,0,0,0,0,0,0,0,0,0,0,0,0,0,0,0,0,0,0,0,0,0,0,0,0,0,0,0,0,0,0,0,0,0,0,0,0,0,0,1.0184,1.0185,0,1.0277,1.0278,1.0279,1.0322,1.0322,1.0321,1.0321,1.0417,1.0419,1.0422,0,0,0,0,0,0,0,0,0,0,0,0,0,1.0041,1.0044,1.0184,1.0185,1.0186,1.0277,1.0278,1.0279,1.0322,1.0321,1.0321,1.0321,1.0416,1.0419,1.0422,0,0,0,0,0,0,0,0,0,0,0,0,0,1.0116,1.0044,1.0184,1.0218,1.0222,1.0277,1.0278,1.028,1.0322,1.0321,1.0321,1.0321,1.0415,1.0418,1.0422,1.0449,0,0,1.0434,1.0436,0,0,0,0,0,0,0,0,1.0111,1.0121,1.0212,1.0216,1.022,1.0288,1.0263,1.0337,1.0322,1.0284,1.0321,1.0321,1.0374,1.0381,1.0399,1.0454,1.0458,1.0435,1.0437,1.0439,1.044,0,0,0,0,0,0,0,1.0106,1.0117,1.0221,1.0213,1.0218,1.0229,1.0239,1.0277,1.0328,1.0287,1.029,1.0301,1.0376,1.0395,1.0401,1.0459,1.0435,1.0438,1.044,1.0442,1.054,1.054,0,0,0,0,0,0,1.0095,1.0112,1.0218,1.0224,1.0164,1.0231,1.0243,1.0266,1.0328,1.0337,1.0301,1.0303,1.0388,1.0397,1.0405,1.044,1.0439,1.0442,1.0445,1.0539,1.054,1.054,0,0,0,0,0,0,1.0092,1.0104,1.0214,1.0169,1.0184,1.0234,1.026,1.0268,1.0287,1.0339,1.0348,1.0311,1.0388,1.0399,1.0438,1.0444,1.0444,1.0448,1.0539,1.0539,1.054,1.051,0,0,0,0,0,0,1.0088,1.0103,1.0114,1.0169,1.0186,1.0246,1.026,1.027,1.0294,1.0297,1.035,1.0359,1.0389,1.0432,1.0442,1.0449,1.0451,1.0539,1.0539,1.054,1.0511,1.051,1.0508,0,0,0,0,0,1.0083,1.0103,1.0115,1.0127,1.0201,1.0246,1.0256,1.029,1.0294,1.0305,1.0338,1.0357,1.0441,1.0435,1.0447,1.0456,1.0539,1.0539,1.054,1.0511,1.051,1.0508,0,0,0,0,0,0,1.0048,1.011,1.0125,1.0163,1.0199,1.0253,1.0269,1.0287,1.0323,1.0324,1.0365,1.0377,1.0411,1.0437,1.0429,1.0484,1.0492,1.0494,1.0466,1.0465,1.0464,1.0457,1.0454,0,0,0,0,0,1.0044,1.0076,1.0129,1.0157,1.0175,1.0218,1.0239,1.0262,1.0301,1.0317,1.0352,1.0389,1.0424,1.0446,1.0481,1.0514,1.0526,1.0526,1.0525,1.0524,1.0526,1.0544,1.0545,1.0542,1.0542,1.0542,0,0,1.0038,1.0076,1.0094,1.0151,1.0182,1.0213,1.0231,1.0264,1.0287,1.0322,1.036,1.0387,1.0431,1.0467,1.0484,1.0489,1.0529,1.0524,1.0523,1.0526,1.0545,1.0545,1.0545,1.0542,1.0542,1.0542,0,0,1.0042,1.0075,1.0101,1.0131,1.0177,1.0206,1.0212,1.0263,1.0283,1.0321,1.0348,1.0376,1.0435,1.0465,1.0487,1.05,1.0519,1.0511,1.0504,1.0522,1.0522,1.0523,1.0527,1.0528,1.0512,1.0512,1.0512,0,1.0029,1.0077,1.0113,1.0144,1.0168,1.02,1.0227,1.0254,1.0309,1.0324,1.0329,1.0403,1.0435,1.0477,1.048,1.0498,1.0506,1.0505,1.0519,1.052,1.0521,1.0525,1.0527,1.0511,1.0511,1.0511,1.0511,0,1.0058,1.0091,1.0107,1.0158,1.0184,1.0213,1.0252,1.0274,1.0294,1.0322,1.036,1.0399,1.0442,1.0453,1.0474,1.0499,1.05,1.0511,1.052,1.0519,1.0524,1.0526,1.0509,1.051,1.051,1.051,0,0,1.0044,1.0114,1.0119,1.0142,1.0194,1.022,1.0249,1.0291,1.0308,1.0344,1.037,1.0418,1.0428,1.0454,1.0478,1.0493,1.05,1.0503,1.0504,1.0501,1.0529,1.052,1.0522,1.0513,1.0513,1.0513,1.0525,0,1.0055,1.011,1.0142,1.0183,1.0214,1.0244,1.0269,1.0303,1.0329,1.0358,1.0387,1.0421,1.0432,1.0448,1.0464,1.0496,1.0506,1.0495,1.0536,1.0537,1.0524,1.0524,1.0516,1.0525,1.0527,1.0528,1.0528,0,1.0076,1.0111,1.0155,1.0202,1.0216,1.0239,1.0279,1.0306,1.0345,1.0363,1.039,1.0414,1.0445,1.045,1.0494,1.0485,1.0504,1.0521,1.0522,1.0528,1.0533,1.0529,1.0529,1.053,1.0531,1.0531,1.0531,0,1.0061,1.0119,1.0153,1.0172,1.0228,1.0243,1.0267,1.0305,1.0328,1.0362,1.0377,1.0414,1.0435,1.0463,1.0496,1.0497,1.0536,1.0544,1.0551,1.055,1.0558,1.0557,1.056,1.057,1.057,1.057,1.057,0,1.0071,1.0096,1.0147,1.0167,1.0197,1.0232,1.026,1.0287,1.032,1.0346,1.0374,1.0398,1.0439,1.0468,1.0493,1.0525,1.0534,1.0549,1.0555,1.0547,1.0545,1.0559,1.056,1.057,1.057,1.057,1.057,0,1.0059,1.0094,1.0133,1.0182,1.0195,1.0214,1.0256,1.0277,1.0304,1.0336,1.0346,1.0388,1.0423,1.0458,1.0505,1.0522,1.0553,1.0562,1.0539,1.0543,1.0548,1.0547,1.0561,1.0565,1.0571,1.0571,1.0571,0,1.0063,1.0084,1.0135,1.0154,1.0177,1.0208,1.023,1.0266,1.0288,1.0333,1.0348,1.0384,1.0416,1.047,1.0504,1.054,1.055,1.0552,1.0556,1.0546,1.055,1.0548,1.055,1.0551,1.0551,1.0551,1.0551,0,1.0066,1.0082,1.0113,1.0151,1.0177,1.0208,1.024,1.0254,1.0295,1.0319,1.0354,1.0378,1.0425,1.0461,1.0501,1.0525,1.0544,1.0549,1.0553,1.0544,1.053,1.0537,1.0536,1.0549,1.0549,1.0549,1.0549,1.0549,1.0062,1.0081,1.012,1.0154,1.0181,1.021,1.0232,1.0261,1.0291,1.0332,1.0351,1.0387,1.0424,1.0479,1.0502,1.053,1.0535,1.0541,1.0542,1.0543,1.054,1.0525,1.0537,1.0537,1.0538,1.0538,1.0538,0,1.0066,1.0092,1.0123,1.0166,1.0193,1.0208,1.0244,1.0265,1.0296,1.0328,1.0358,1.0398,1.0433,1.0469,1.0506,1.0521,1.0531,1.0529,1.0529,1.0534,1.0534,1.0527,1.0521,1.0521,1.0521,1.0521,1.0521,1.0521,1.0072,1.0104,1.0124,1.017,1.0196,1.0231,1.025,1.0276,1.0302,1.0346,1.0375,1.0398,1.0432,1.0471,1.0503,1.0513,1.0525,1.0521,1.0533,1.0533,1.0534,1.0535,1.0529,1.0523,1.0523,1.0531,1.0531,1.0531]},{"header":{"parameterUnit":"m.s-1","parameterCategory":1,"la1":30.2991,"la2":30.254,"lo1":-89.0895,"lo2":-89.0444,"dy":0.0017,"dx":0.0017,"nx":28,"ny":28,"refTime":"2026-02-27T03:00:00:Z","depth":0,"parameterNumber":3,"parameterNumberName":"V-component_of_WINDS"},"data":[0,0,0,0,0,0,0,0,0,0,0,0,0,0,0,0,0,0,0,0,0,0,0,0,0,0,0,0,0,0,0,0,0,0,0,0,0,0,0,0,0,0,0,0,0,0,0,0,0,0,0,0,0,0,0,0,0,0,0.5004,0.5003,0,0.4912,0.4911,0.491,0.4868,0.4868,0.4868,0.4868,0.4772,0.477,0.4767,0,0,0,0,0,0,0,0,0,0,0,0,0,0.5142,0.5139,0.5004,0.5003,0.5002,0.4912,0.4911,0.491,0.4868,0.4868,0.4868,0.4868,0.4773,0.477,0.4767,0,0,0,0,0,0,0,0,0,0,0,0,0,0.5069,0.5139,0.5004,0.497,0.4966,0.4912,0.4911,0.4909,0.4868,0.4868,0.4868,0.4868,0.4774,0.477,0.4766,0.4739,0,0,0.4754,0.4752,0,0,0,0,0,0,0,0,0.5073,0.5064,0.4976,0.4972,0.4968,0.4901,0.4924,0.4852,0.4868,0.4905,0.4868,0.4868,0.4815,0.4808,0.479,0.4735,0.4731,0.4754,0.4751,0.475,0.4749,0,0,0,0,0,0,0,0.5078,0.5068,0.4967,0.4975,0.497,0.4959,0.4949,0.491,0.486,0.4902,0.4898,0.4888,0.4813,0.4794,0.4787,0.4729,0.4754,0.475,0.4748,0.4746,0.4647,0.4647,0,0,0,0,0,0,0.5089,0.5072,0.497,0.4965,0.5022,0.4956,0.4945,0.4923,0.4861,0.4851,0.4888,0.4887,0.4801,0.4792,0.4784,0.4748,0.475,0.4746,0.4744,0.4647,0.4647,0.4647,0,0,0,0,0,0,0.5092,0.508,0.4974,0.5017,0.5003,0.4954,0.4929,0.4921,0.4902,0.485,0.4841,0.4878,0.48,0.4789,0.4751,0.4744,0.4744,0.4741,0.4648,0.4647,0.4647,0.4676,0,0,0,0,0,0,0.5096,0.5082,0.5071,0.5018,0.5001,0.4943,0.4929,0.4919,0.4895,0.4892,0.4839,0.483,0.48,0.4757,0.4747,0.4739,0.4738,0.4648,0.4648,0.4647,0.4676,0.4677,0.4678,0,0,0,0,0,0.5101,0.5083,0.5071,0.5059,0.4987,0.4943,0.4933,0.4899,0.4895,0.4884,0.4851,0.4832,0.4747,0.4753,0.4742,0.4732,0.4648,0.4648,0.4647,0.4675,0.4677,0.4678,0,0,0,0,0,0,0.5136,0.5075,0.5061,0.5025,0.4989,0.4936,0.492,0.4902,0.4866,0.4865,0.4824,0.4812,0.4777,0.4751,0.4759,0.4703,0.4696,0.4693,0.4721,0.4722,0.4723,0.473,0.4734,0,0,0,0,0,0.514,0.5109,0.5058,0.503,0.5013,0.497,0.495,0.4927,0.4888,0.4872,0.4836,0.4799,0.4764,0.4742,0.4707,0.4672,0.466,0.466,0.4661,0.4662,0.466,0.464,0.4639,0.4645,0.4645,0.4645,0,0,0.5146,0.5109,0.5093,0.5036,0.5006,0.4975,0.4958,0.4926,0.4902,0.4867,0.4829,0.4801,0.4757,0.472,0.4702,0.4697,0.4656,0.4662,0.4663,0.466,0.4639,0.4639,0.4638,0.4645,0.4645,0.4645,0,0,0.5143,0.5112,0.5086,0.5056,0.5011,0.4983,0.4977,0.4926,0.4906,0.4867,0.484,0.4812,0.4752,0.4722,0.4699,0.4685,0.4665,0.4674,0.468,0.4661,0.466,0.466,0.4655,0.4653,0.4672,0.4672,0.4672,0,0.5157,0.511,0.5075,0.5044,0.502,0.4989,0.4962,0.4934,0.488,0.4864,0.4859,0.4784,0.4752,0.4708,0.4705,0.4687,0.4678,0.468,0.4663,0.4662,0.4661,0.4656,0.4654,0.4674,0.4674,0.4673,0.4673,0,0.5129,0.5097,0.5081,0.503,0.5004,0.4976,0.4936,0.4914,0.4894,0.4866,0.4827,0.4787,0.4744,0.4732,0.4711,0.4684,0.4683,0.4672,0.4663,0.4663,0.4657,0.4654,0.4676,0.4675,0.4675,0.4674,0,0,0.5143,0.5074,0.5069,0.5046,0.4994,0.4968,0.4938,0.4896,0.4878,0.4842,0.4816,0.4766,0.4756,0.473,0.4705,0.4689,0.468,0.4679,0.4677,0.468,0.4648,0.4656,0.4655,0.4667,0.4667,0.4666,0.4652,0,0.5132,0.5078,0.5046,0.5005,0.4974,0.4944,0.4918,0.4883,0.4857,0.4827,0.4797,0.4763,0.4751,0.4735,0.4717,0.4685,0.4673,0.4685,0.4642,0.4641,0.4653,0.4651,0.466,0.4648,0.4649,0.4649,0.4648,0,0.5112,0.5077,0.5033,0.4985,0.4971,0.4948,0.4907,0.4879,0.4839,0.4821,0.4792,0.4768,0.4735,0.4731,0.4684,0.4694,0.4674,0.4656,0.4654,0.4648,0.4644,0.4645,0.4643,0.4642,0.4644,0.4645,0.4645,0,0.5127,0.5069,0.5035,0.5016,0.4959,0.4944,0.4919,0.488,0.4857,0.4821,0.4805,0.4766,0.4745,0.4715,0.4681,0.468,0.4638,0.463,0.4621,0.4622,0.4613,0.4614,0.4608,0.4601,0.4601,0.4601,0.4601,0,0.5117,0.5091,0.5041,0.502,0.499,0.4954,0.4925,0.4898,0.4863,0.4836,0.4807,0.4782,0.4739,0.4709,0.4682,0.4648,0.4638,0.4622,0.4615,0.4625,0.4627,0.4611,0.461,0.4601,0.4601,0.4601,0.4601,0,0.5129,0.5094,0.5055,0.5005,0.4991,0.4972,0.4928,0.4907,0.4879,0.4845,0.4835,0.4791,0.4754,0.4717,0.4667,0.4649,0.4615,0.4606,0.4629,0.4625,0.4618,0.4619,0.4601,0.4596,0.4594,0.4594,0.4594,0,0.5125,0.5104,0.5052,0.5032,0.5009,0.4977,0.4954,0.4918,0.4894,0.4848,0.4832,0.4793,0.4759,0.4702,0.4665,0.4627,0.4616,0.4613,0.461,0.462,0.4615,0.4617,0.4615,0.4613,0.4614,0.4614,0.4614,0,0.5121,0.5105,0.5073,0.5035,0.5008,0.4976,0.4943,0.4928,0.4885,0.4861,0.4823,0.4797,0.4747,0.4708,0.4666,0.464,0.462,0.4615,0.4611,0.462,0.4634,0.4626,0.4632,0.4615,0.4615,0.4615,0.4615,0.4615,0.5124,0.5104,0.5065,0.503,0.5002,0.4972,0.4949,0.4919,0.4887,0.4843,0.4824,0.4786,0.4746,0.4687,0.4662,0.4632,0.4626,0.462,0.4618,0.4617,0.4619,0.4639,0.4624,0.4624,0.4623,0.4623,0.4623,0,0.5119,0.5092,0.506,0.5015,0.4988,0.4972,0.4935,0.4913,0.488,0.4846,0.4814,0.4771,0.4733,0.4694,0.4655,0.4638,0.4627,0.4628,0.4629,0.4623,0.4627,0.4634,0.4637,0.4637,0.4637,0.4637,0.4637,0.4637,0.5112,0.5078,0.5058,0.501,0.4983,0.4946,0.4926,0.4898,0.487,0.4824,0.4793,0.4768,0.4731,0.4689,0.4654,0.4643,0.463,0.4634,0.462,0.4624,0.4623,0.4622,0.4629,0.4631,0.4631,0.462,0.4619,0.4619]}]]